Index of /20260426/WXO-DD/model_rdps/10km/06/015
Name Last modified Size Description
Parent Directory -
20260426T06Z_MSC_RDPS_AbsoluteVorticity_IsbL-0250_RLatLon0.09_PT015H.grib2 2026-04-26 08:44 623K
20260426T06Z_MSC_RDPS_AbsoluteVorticity_IsbL-0500_RLatLon0.09_PT015H.grib2 2026-04-26 08:44 568K
20260426T06Z_MSC_RDPS_AbsoluteVorticity_IsbL-0700_RLatLon0.09_PT015H.grib2 2026-04-26 08:44 630K
20260426T06Z_MSC_RDPS_AbsoluteVorticity_IsbL-0850_RLatLon0.09_PT015H.grib2 2026-04-26 08:44 795K
20260426T06Z_MSC_RDPS_AirTemp_AGL-120m_RLatLon0.09_PT015H.grib2 2026-04-26 08:44 400K
20260426T06Z_MSC_RDPS_AirTemp_AGL-2m_RLatLon0.09_PT015H.grib2 2026-04-26 08:44 637K
20260426T06Z_MSC_RDPS_AirTemp_AGL-40m_RLatLon0.09_PT015H.grib2 2026-04-26 08:44 408K
20260426T06Z_MSC_RDPS_AirTemp_AGL-80m_RLatLon0.09_PT015H.grib2 2026-04-26 08:44 404K
20260426T06Z_MSC_RDPS_AirTemp_IsbL-0001_RLatLon0.09_PT015H.grib2 2026-04-26 08:44 275K
20260426T06Z_MSC_RDPS_AirTemp_IsbL-0005_RLatLon0.09_PT015H.grib2 2026-04-26 08:44 297K
20260426T06Z_MSC_RDPS_AirTemp_IsbL-0010_RLatLon0.09_PT015H.grib2 2026-04-26 08:44 307K
20260426T06Z_MSC_RDPS_AirTemp_IsbL-0020_RLatLon0.09_PT015H.grib2 2026-04-26 08:44 326K
20260426T06Z_MSC_RDPS_AirTemp_IsbL-0030_RLatLon0.09_PT015H.grib2 2026-04-26 08:44 346K
20260426T06Z_MSC_RDPS_AirTemp_IsbL-0050_RLatLon0.09_PT015H.grib2 2026-04-26 08:44 325K
20260426T06Z_MSC_RDPS_AirTemp_IsbL-0100_RLatLon0.09_PT015H.grib2 2026-04-26 08:44 425K
20260426T06Z_MSC_RDPS_AirTemp_IsbL-0150_RLatLon0.09_PT015H.grib2 2026-04-26 08:44 421K
20260426T06Z_MSC_RDPS_AirTemp_IsbL-0175_RLatLon0.09_PT015H.grib2 2026-04-26 08:44 415K
20260426T06Z_MSC_RDPS_AirTemp_IsbL-0200_RLatLon0.09_PT015H.grib2 2026-04-26 08:44 425K
20260426T06Z_MSC_RDPS_AirTemp_IsbL-0225_RLatLon0.09_PT015H.grib2 2026-04-26 08:44 428K
20260426T06Z_MSC_RDPS_AirTemp_IsbL-0250_RLatLon0.09_PT015H.grib2 2026-04-26 08:44 433K
20260426T06Z_MSC_RDPS_AirTemp_IsbL-0275_RLatLon0.09_PT015H.grib2 2026-04-26 08:44 410K
20260426T06Z_MSC_RDPS_AirTemp_IsbL-0300_RLatLon0.09_PT015H.grib2 2026-04-26 08:44 416K
20260426T06Z_MSC_RDPS_AirTemp_IsbL-0350_RLatLon0.09_PT015H.grib2 2026-04-26 08:44 427K
20260426T06Z_MSC_RDPS_AirTemp_IsbL-0400_RLatLon0.09_PT015H.grib2 2026-04-26 08:44 427K
20260426T06Z_MSC_RDPS_AirTemp_IsbL-0450_RLatLon0.09_PT015H.grib2 2026-04-26 08:44 435K
20260426T06Z_MSC_RDPS_AirTemp_IsbL-0500_RLatLon0.09_PT015H.grib2 2026-04-26 08:44 449K
20260426T06Z_MSC_RDPS_AirTemp_IsbL-0550_RLatLon0.09_PT015H.grib2 2026-04-26 08:44 433K
20260426T06Z_MSC_RDPS_AirTemp_IsbL-0600_RLatLon0.09_PT015H.grib2 2026-04-26 08:44 451K
20260426T06Z_MSC_RDPS_AirTemp_IsbL-0650_RLatLon0.09_PT015H.grib2 2026-04-26 08:44 464K
20260426T06Z_MSC_RDPS_AirTemp_IsbL-0700_RLatLon0.09_PT015H.grib2 2026-04-26 08:44 385K
20260426T06Z_MSC_RDPS_AirTemp_IsbL-0750_RLatLon0.09_PT015H.grib2 2026-04-26 08:44 420K
20260426T06Z_MSC_RDPS_AirTemp_IsbL-0800_RLatLon0.09_PT015H.grib2 2026-04-26 08:44 465K
20260426T06Z_MSC_RDPS_AirTemp_IsbL-0850_RLatLon0.09_PT015H.grib2 2026-04-26 08:44 522K
20260426T06Z_MSC_RDPS_AirTemp_IsbL-0875_RLatLon0.09_PT015H.grib2 2026-04-26 08:44 525K
20260426T06Z_MSC_RDPS_AirTemp_IsbL-0900_RLatLon0.09_PT015H.grib2 2026-04-26 08:44 540K
20260426T06Z_MSC_RDPS_AirTemp_IsbL-0925_RLatLon0.09_PT015H.grib2 2026-04-26 08:44 538K
20260426T06Z_MSC_RDPS_AirTemp_IsbL-0950_RLatLon0.09_PT015H.grib2 2026-04-26 08:44 539K
20260426T06Z_MSC_RDPS_AirTemp_IsbL-0970_RLatLon0.09_PT015H.grib2 2026-04-26 08:44 537K
20260426T06Z_MSC_RDPS_AirTemp_IsbL-0985_RLatLon0.09_PT015H.grib2 2026-04-26 08:44 532K
20260426T06Z_MSC_RDPS_AirTemp_IsbL-1000_RLatLon0.09_PT015H.grib2 2026-04-26 08:44 518K
20260426T06Z_MSC_RDPS_AirTemp_IsbL-1015_RLatLon0.09_PT015H.grib2 2026-04-26 08:44 513K
20260426T06Z_MSC_RDPS_Albedo_Sfc_RLatLon0.09_PT015H.grib2 2026-04-26 08:44 167K
20260426T06Z_MSC_RDPS_CAPE_Sfc_RLatLon0.09_PT015H.grib2 2026-04-26 08:44 1.9M
20260426T06Z_MSC_RDPS_CIN_Sfc_RLatLon0.09_PT015H.grib2 2026-04-26 08:44 1.3M
20260426T06Z_MSC_RDPS_CloudWater_EAtm_RLatLon0.09_PT015H.grib2 2026-04-26 08:44 221K
20260426T06Z_MSC_RDPS_ConvectivePrecip-Accum_Sfc_RLatLon0.09_PT015H.grib2 2026-04-26 08:44 762K
20260426T06Z_MSC_RDPS_DewPointDepression_AGL-2m_RLatLon0.09_PT015H.grib2 2026-04-26 08:44 424K
20260426T06Z_MSC_RDPS_DewPointDepression_IsbL-0001_RLatLon0.09_PT015H.grib2 2026-04-26 08:44 193
20260426T06Z_MSC_RDPS_DewPointDepression_IsbL-0005_RLatLon0.09_PT015H.grib2 2026-04-26 08:44 193
20260426T06Z_MSC_RDPS_DewPointDepression_IsbL-0010_RLatLon0.09_PT015H.grib2 2026-04-26 08:44 193
20260426T06Z_MSC_RDPS_DewPointDepression_IsbL-0020_RLatLon0.09_PT015H.grib2 2026-04-26 08:44 193
20260426T06Z_MSC_RDPS_DewPointDepression_IsbL-0030_RLatLon0.09_PT015H.grib2 2026-04-26 08:44 193
20260426T06Z_MSC_RDPS_DewPointDepression_IsbL-0050_RLatLon0.09_PT015H.grib2 2026-04-26 08:44 92K
20260426T06Z_MSC_RDPS_DewPointDepression_IsbL-0100_RLatLon0.09_PT015H.grib2 2026-04-26 08:44 127K
20260426T06Z_MSC_RDPS_DewPointDepression_IsbL-0150_RLatLon0.09_PT015H.grib2 2026-04-26 08:44 153K
20260426T06Z_MSC_RDPS_DewPointDepression_IsbL-0175_RLatLon0.09_PT015H.grib2 2026-04-26 08:44 195K
20260426T06Z_MSC_RDPS_DewPointDepression_IsbL-0200_RLatLon0.09_PT015H.grib2 2026-04-26 08:44 236K
20260426T06Z_MSC_RDPS_DewPointDepression_IsbL-0225_RLatLon0.09_PT015H.grib2 2026-04-26 08:44 273K
20260426T06Z_MSC_RDPS_DewPointDepression_IsbL-0250_RLatLon0.09_PT015H.grib2 2026-04-26 08:44 311K
20260426T06Z_MSC_RDPS_DewPointDepression_IsbL-0275_RLatLon0.09_PT015H.grib2 2026-04-26 08:44 322K
20260426T06Z_MSC_RDPS_DewPointDepression_IsbL-0300_RLatLon0.09_PT015H.grib2 2026-04-26 08:44 339K
20260426T06Z_MSC_RDPS_DewPointDepression_IsbL-0350_RLatLon0.09_PT015H.grib2 2026-04-26 08:44 340K
20260426T06Z_MSC_RDPS_DewPointDepression_IsbL-0400_RLatLon0.09_PT015H.grib2 2026-04-26 08:44 353K
20260426T06Z_MSC_RDPS_DewPointDepression_IsbL-0450_RLatLon0.09_PT015H.grib2 2026-04-26 08:44 363K
20260426T06Z_MSC_RDPS_DewPointDepression_IsbL-0500_RLatLon0.09_PT015H.grib2 2026-04-26 08:44 370K
20260426T06Z_MSC_RDPS_DewPointDepression_IsbL-0550_RLatLon0.09_PT015H.grib2 2026-04-26 08:44 381K
20260426T06Z_MSC_RDPS_DewPointDepression_IsbL-0600_RLatLon0.09_PT015H.grib2 2026-04-26 08:44 389K
20260426T06Z_MSC_RDPS_DewPointDepression_IsbL-0650_RLatLon0.09_PT015H.grib2 2026-04-26 08:44 390K
20260426T06Z_MSC_RDPS_DewPointDepression_IsbL-0700_RLatLon0.09_PT015H.grib2 2026-04-26 08:44 404K
20260426T06Z_MSC_RDPS_DewPointDepression_IsbL-0750_RLatLon0.09_PT015H.grib2 2026-04-26 08:44 430K
20260426T06Z_MSC_RDPS_DewPointDepression_IsbL-0800_RLatLon0.09_PT015H.grib2 2026-04-26 08:44 465K
20260426T06Z_MSC_RDPS_DewPointDepression_IsbL-0850_RLatLon0.09_PT015H.grib2 2026-04-26 08:44 487K
20260426T06Z_MSC_RDPS_DewPointDepression_IsbL-0875_RLatLon0.09_PT015H.grib2 2026-04-26 08:44 484K
20260426T06Z_MSC_RDPS_DewPointDepression_IsbL-0900_RLatLon0.09_PT015H.grib2 2026-04-26 08:44 474K
20260426T06Z_MSC_RDPS_DewPointDepression_IsbL-0925_RLatLon0.09_PT015H.grib2 2026-04-26 08:44 464K
20260426T06Z_MSC_RDPS_DewPointDepression_IsbL-0950_RLatLon0.09_PT015H.grib2 2026-04-26 08:44 450K
20260426T06Z_MSC_RDPS_DewPointDepression_IsbL-0970_RLatLon0.09_PT015H.grib2 2026-04-26 08:44 442K
20260426T06Z_MSC_RDPS_DewPointDepression_IsbL-0985_RLatLon0.09_PT015H.grib2 2026-04-26 08:44 439K
20260426T06Z_MSC_RDPS_DewPointDepression_IsbL-1000_RLatLon0.09_PT015H.grib2 2026-04-26 08:44 433K
20260426T06Z_MSC_RDPS_DewPointDepression_IsbL-1015_RLatLon0.09_PT015H.grib2 2026-04-26 08:44 426K
20260426T06Z_MSC_RDPS_DewPoint_AGL-2m_RLatLon0.09_PT015H.grib2 2026-04-26 08:44 314K
20260426T06Z_MSC_RDPS_DownwardLongwaveRadiationFlux-Accum_Sfc_RLatLon0.09_PT015H.grib2 2026-04-26 08:44 520K
20260426T06Z_MSC_RDPS_DownwardShortwaveRadiationFlux-Accum_NTAtm_RLatLon0.09_PT015H.grib2 2026-04-26 08:44 123K
20260426T06Z_MSC_RDPS_DownwardShortwaveRadiationFlux-Accum_Sfc_RLatLon0.09_PT015H.grib2 2026-04-26 08:44 583K
20260426T06Z_MSC_RDPS_FreezingRain-Accum1h_Sfc_RLatLon0.09_PT015H.grib2 2026-04-26 08:44 10K
20260426T06Z_MSC_RDPS_FreezingRain-Accum3h_Sfc_RLatLon0.09_PT015H.grib2 2026-04-26 08:44 15K
20260426T06Z_MSC_RDPS_FreezingRain-Accum_Sfc_RLatLon0.09_PT015H.grib2 2026-04-26 08:44 103K
20260426T06Z_MSC_RDPS_GeopotentialHeight_IsbL-0001_RLatLon0.09_PT015H.grib2 2026-04-26 08:44 280K
20260426T06Z_MSC_RDPS_GeopotentialHeight_IsbL-0005_RLatLon0.09_PT015H.grib2 2026-04-26 08:44 346K
20260426T06Z_MSC_RDPS_GeopotentialHeight_IsbL-0010_RLatLon0.09_PT015H.grib2 2026-04-26 08:44 315K
20260426T06Z_MSC_RDPS_GeopotentialHeight_IsbL-0020_RLatLon0.09_PT015H.grib2 2026-04-26 08:44 315K
20260426T06Z_MSC_RDPS_GeopotentialHeight_IsbL-0030_RLatLon0.09_PT015H.grib2 2026-04-26 08:44 414K
20260426T06Z_MSC_RDPS_GeopotentialHeight_IsbL-0050_RLatLon0.09_PT015H.grib2 2026-04-26 08:44 317K
20260426T06Z_MSC_RDPS_GeopotentialHeight_IsbL-0100_RLatLon0.09_PT015H.grib2 2026-04-26 08:44 293K
20260426T06Z_MSC_RDPS_GeopotentialHeight_IsbL-0150_RLatLon0.09_PT015H.grib2 2026-04-26 08:44 233K
20260426T06Z_MSC_RDPS_GeopotentialHeight_IsbL-0175_RLatLon0.09_PT015H.grib2 2026-04-26 08:44 236K
20260426T06Z_MSC_RDPS_GeopotentialHeight_IsbL-0200_RLatLon0.09_PT015H.grib2 2026-04-26 08:44 238K
20260426T06Z_MSC_RDPS_GeopotentialHeight_IsbL-0225_RLatLon0.09_PT015H.grib2 2026-04-26 08:44 271K
20260426T06Z_MSC_RDPS_GeopotentialHeight_IsbL-0250_RLatLon0.09_PT015H.grib2 2026-04-26 08:44 273K
20260426T06Z_MSC_RDPS_GeopotentialHeight_IsbL-0275_RLatLon0.09_PT015H.grib2 2026-04-26 08:44 240K
20260426T06Z_MSC_RDPS_GeopotentialHeight_IsbL-0300_RLatLon0.09_PT015H.grib2 2026-04-26 08:44 240K
20260426T06Z_MSC_RDPS_GeopotentialHeight_IsbL-0350_RLatLon0.09_PT015H.grib2 2026-04-26 08:44 236K
20260426T06Z_MSC_RDPS_GeopotentialHeight_IsbL-0400_RLatLon0.09_PT015H.grib2 2026-04-26 08:44 232K
20260426T06Z_MSC_RDPS_GeopotentialHeight_IsbL-0450_RLatLon0.09_PT015H.grib2 2026-04-26 08:44 300K
20260426T06Z_MSC_RDPS_GeopotentialHeight_IsbL-0500_RLatLon0.09_PT015H.grib2 2026-04-26 08:44 296K
20260426T06Z_MSC_RDPS_GeopotentialHeight_IsbL-0550_RLatLon0.09_PT015H.grib2 2026-04-26 08:44 292K
20260426T06Z_MSC_RDPS_GeopotentialHeight_IsbL-0600_RLatLon0.09_PT015H.grib2 2026-04-26 08:44 289K
20260426T06Z_MSC_RDPS_GeopotentialHeight_IsbL-0650_RLatLon0.09_PT015H.grib2 2026-04-26 08:44 286K
20260426T06Z_MSC_RDPS_GeopotentialHeight_IsbL-0700_RLatLon0.09_PT015H.grib2 2026-04-26 08:44 284K
20260426T06Z_MSC_RDPS_GeopotentialHeight_IsbL-0750_RLatLon0.09_PT015H.grib2 2026-04-26 08:44 286K
20260426T06Z_MSC_RDPS_GeopotentialHeight_IsbL-0800_RLatLon0.09_PT015H.grib2 2026-04-26 08:44 265K
20260426T06Z_MSC_RDPS_GeopotentialHeight_IsbL-0850_RLatLon0.09_PT015H.grib2 2026-04-26 08:44 272K
20260426T06Z_MSC_RDPS_GeopotentialHeight_IsbL-0875_RLatLon0.09_PT015H.grib2 2026-04-26 08:44 275K
20260426T06Z_MSC_RDPS_GeopotentialHeight_IsbL-0900_RLatLon0.09_PT015H.grib2 2026-04-26 08:44 278K
20260426T06Z_MSC_RDPS_GeopotentialHeight_IsbL-0925_RLatLon0.09_PT015H.grib2 2026-04-26 08:44 281K
20260426T06Z_MSC_RDPS_GeopotentialHeight_IsbL-0950_RLatLon0.09_PT015H.grib2 2026-04-26 08:44 285K
20260426T06Z_MSC_RDPS_GeopotentialHeight_IsbL-0970_RLatLon0.09_PT015H.grib2 2026-04-26 08:44 291K
20260426T06Z_MSC_RDPS_GeopotentialHeight_IsbL-0985_RLatLon0.09_PT015H.grib2 2026-04-26 08:44 299K
20260426T06Z_MSC_RDPS_GeopotentialHeight_IsbL-1000_RLatLon0.09_PT015H.grib2 2026-04-26 08:44 309K
20260426T06Z_MSC_RDPS_GeopotentialHeight_IsbL-1015_RLatLon0.09_PT015H.grib2 2026-04-26 08:44 321K
20260426T06Z_MSC_RDPS_Humidex_Sfc_RLatLon0.09_PT015H.grib2 2026-04-26 08:44 2.3M
20260426T06Z_MSC_RDPS_IcePellets-Accum1h_Sfc_RLatLon0.09_PT015H.grib2 2026-04-26 08:44 5.3K
20260426T06Z_MSC_RDPS_IcePellets-Accum3h_Sfc_RLatLon0.09_PT015H.grib2 2026-04-26 08:44 7.0K
20260426T06Z_MSC_RDPS_IcePellets-Accum_Sfc_RLatLon0.09_PT015H.grib2 2026-04-26 08:44 24K
20260426T06Z_MSC_RDPS_KIndex_Sfc_RLatLon0.09_PT015H.grib2 2026-04-26 08:44 2.5M
20260426T06Z_MSC_RDPS_LatentHeatNetFlux_Sfc_RLatLon0.09_PT015H.grib2 2026-04-26 08:44 305K
20260426T06Z_MSC_RDPS_LiftedIndex-MU-VT_IsbL-0500_RLatLon0.09_PT015H.grib2 2026-04-26 08:44 2.4M
20260426T06Z_MSC_RDPS_NetLongwaveRadiationFlux-Accum_Sfc_RLatLon0.09_PT015H.grib2 2026-04-26 08:44 664K
20260426T06Z_MSC_RDPS_NetShortwaveRadiationFlux-Accum_Sfc_RLatLon0.09_PT015H.grib2 2026-04-26 08:44 580K
20260426T06Z_MSC_RDPS_PlanetaryBoundaryLayerHeight_Sfc_RLatLon0.09_PT015H.grib2 2026-04-26 08:44 1.0M
20260426T06Z_MSC_RDPS_Precip-Accum1h_Sfc_RLatLon0.09_PT015H.grib2 2026-04-26 08:44 1.3M
20260426T06Z_MSC_RDPS_Precip-Accum3h_Sfc_RLatLon0.09_PT015H.grib2 2026-04-26 08:44 1.4M
20260426T06Z_MSC_RDPS_Precip-Accum_Sfc_RLatLon0.09_PT015H.grib2 2026-04-26 08:44 1.8M
20260426T06Z_MSC_RDPS_PrecipRate_Sfc_RLatLon0.09_PT015H.grib2 2026-04-26 08:44 191K
20260426T06Z_MSC_RDPS_PrecipType-Instant_Sfc_RLatLon0.09_PT015H.grib2 2026-04-26 08:44 612K
20260426T06Z_MSC_RDPS_Pressure-Trend3h_Sfc_RLatLon0.09_PT015H.grib2 2026-04-26 08:44 1.2M
20260426T06Z_MSC_RDPS_Pressure_MSL_RLatLon0.09_PT015H.grib2 2026-04-26 08:44 333K
20260426T06Z_MSC_RDPS_Pressure_PVU-1.5_RLatLon0.09_PT015H.grib2 2026-04-26 08:44 2.3M
20260426T06Z_MSC_RDPS_Pressure_PVU-1_RLatLon0.09_PT015H.grib2 2026-04-26 08:44 2.4M
20260426T06Z_MSC_RDPS_Pressure_PVU-2_RLatLon0.09_PT015H.grib2 2026-04-26 08:44 2.4M
20260426T06Z_MSC_RDPS_Pressure_Sfc_RLatLon0.09_PT015H.grib2 2026-04-26 08:44 500K
20260426T06Z_MSC_RDPS_RadiativeTemp_Sfc_RLatLon0.09_PT015H.grib2 2026-04-26 08:44 331K
20260426T06Z_MSC_RDPS_Rain-Accum1h_Sfc_RLatLon0.09_PT015H.grib2 2026-04-26 08:44 628K
20260426T06Z_MSC_RDPS_Rain-Accum3h_Sfc_RLatLon0.09_PT015H.grib2 2026-04-26 08:44 721K
20260426T06Z_MSC_RDPS_Rain-Accum_Sfc_RLatLon0.09_PT015H.grib2 2026-04-26 08:44 1.3M
20260426T06Z_MSC_RDPS_RelativeHumidity_AGL-2m_RLatLon0.09_PT015H.grib2 2026-04-26 08:44 1.0M
20260426T06Z_MSC_RDPS_RelativeHumidity_IsbL-0010_RLatLon0.09_PT015H.grib2 2026-04-26 08:44 632K
20260426T06Z_MSC_RDPS_RelativeHumidity_IsbL-0020_RLatLon0.09_PT015H.grib2 2026-04-26 08:44 659K
20260426T06Z_MSC_RDPS_RelativeHumidity_IsbL-0030_RLatLon0.09_PT015H.grib2 2026-04-26 08:44 547K
20260426T06Z_MSC_RDPS_RelativeHumidity_IsbL-0050_RLatLon0.09_PT015H.grib2 2026-04-26 08:44 333K
20260426T06Z_MSC_RDPS_RelativeHumidity_IsbL-0100_RLatLon0.09_PT015H.grib2 2026-04-26 08:44 274K
20260426T06Z_MSC_RDPS_RelativeHumidity_IsbL-0150_RLatLon0.09_PT015H.grib2 2026-04-26 08:44 410K
20260426T06Z_MSC_RDPS_RelativeHumidity_IsbL-0175_RLatLon0.09_PT015H.grib2 2026-04-26 08:44 492K
20260426T06Z_MSC_RDPS_RelativeHumidity_IsbL-0200_RLatLon0.09_PT015H.grib2 2026-04-26 08:44 573K
20260426T06Z_MSC_RDPS_RelativeHumidity_IsbL-0225_RLatLon0.09_PT015H.grib2 2026-04-26 08:44 642K
20260426T06Z_MSC_RDPS_RelativeHumidity_IsbL-0250_RLatLon0.09_PT015H.grib2 2026-04-26 08:44 712K
20260426T06Z_MSC_RDPS_RelativeHumidity_IsbL-0275_RLatLon0.09_PT015H.grib2 2026-04-26 08:44 741K
20260426T06Z_MSC_RDPS_RelativeHumidity_IsbL-0300_RLatLon0.09_PT015H.grib2 2026-04-26 08:44 783K
20260426T06Z_MSC_RDPS_RelativeHumidity_IsbL-0350_RLatLon0.09_PT015H.grib2 2026-04-26 08:44 797K
20260426T06Z_MSC_RDPS_RelativeHumidity_IsbL-0400_RLatLon0.09_PT015H.grib2 2026-04-26 08:44 810K
20260426T06Z_MSC_RDPS_RelativeHumidity_IsbL-0450_RLatLon0.09_PT015H.grib2 2026-04-26 08:44 820K
20260426T06Z_MSC_RDPS_RelativeHumidity_IsbL-0500_RLatLon0.09_PT015H.grib2 2026-04-26 08:44 828K
20260426T06Z_MSC_RDPS_RelativeHumidity_IsbL-0550_RLatLon0.09_PT015H.grib2 2026-04-26 08:44 855K
20260426T06Z_MSC_RDPS_RelativeHumidity_IsbL-0600_RLatLon0.09_PT015H.grib2 2026-04-26 08:44 874K
20260426T06Z_MSC_RDPS_RelativeHumidity_IsbL-0650_RLatLon0.09_PT015H.grib2 2026-04-26 08:44 878K
20260426T06Z_MSC_RDPS_RelativeHumidity_IsbL-0700_RLatLon0.09_PT015H.grib2 2026-04-26 08:44 916K
20260426T06Z_MSC_RDPS_RelativeHumidity_IsbL-0750_RLatLon0.09_PT015H.grib2 2026-04-26 08:44 961K
20260426T06Z_MSC_RDPS_RelativeHumidity_IsbL-0800_RLatLon0.09_PT015H.grib2 2026-04-26 08:44 1.0M
20260426T06Z_MSC_RDPS_RelativeHumidity_IsbL-0850_RLatLon0.09_PT015H.grib2 2026-04-26 08:44 1.1M
20260426T06Z_MSC_RDPS_RelativeHumidity_IsbL-0875_RLatLon0.09_PT015H.grib2 2026-04-26 08:44 1.1M
20260426T06Z_MSC_RDPS_RelativeHumidity_IsbL-0900_RLatLon0.09_PT015H.grib2 2026-04-26 08:44 1.1M
20260426T06Z_MSC_RDPS_RelativeHumidity_IsbL-0925_RLatLon0.09_PT015H.grib2 2026-04-26 08:44 1.1M
20260426T06Z_MSC_RDPS_RelativeHumidity_IsbL-0950_RLatLon0.09_PT015H.grib2 2026-04-26 08:44 1.1M
20260426T06Z_MSC_RDPS_RelativeHumidity_IsbL-0970_RLatLon0.09_PT015H.grib2 2026-04-26 08:44 1.1M
20260426T06Z_MSC_RDPS_RelativeHumidity_IsbL-0985_RLatLon0.09_PT015H.grib2 2026-04-26 08:44 1.0M
20260426T06Z_MSC_RDPS_RelativeHumidity_IsbL-1000_RLatLon0.09_PT015H.grib2 2026-04-26 08:44 1.0M
20260426T06Z_MSC_RDPS_RelativeHumidity_IsbL-1015_RLatLon0.09_PT015H.grib2 2026-04-26 08:44 1.0M
20260426T06Z_MSC_RDPS_Runoff-Accum_Sfc_RLatLon0.09_PT015H.grib2 2026-04-26 08:44 47K
20260426T06Z_MSC_RDPS_SWEATIndex_Sfc_RLatLon0.09_PT015H.grib2 2026-04-26 08:44 2.5M
20260426T06Z_MSC_RDPS_SeeingIndex_EAtm_RLatLon0.09_PT015H.grib2 2026-04-26 08:44 1.0M
20260426T06Z_MSC_RDPS_SensibleHeatNetFlux_Sfc_RLatLon0.09_PT015H.grib2 2026-04-26 08:44 362K
20260426T06Z_MSC_RDPS_ShowalterIndex_IsbL-0500_RLatLon0.09_PT015H.grib2 2026-04-26 08:44 2.5M
20260426T06Z_MSC_RDPS_SkyTransparencyIndex_EAtm_RLatLon0.09_PT015H.grib2 2026-04-26 08:44 729K
20260426T06Z_MSC_RDPS_Snow-Accum1h_Sfc_RLatLon0.09_PT015H.grib2 2026-04-26 08:44 526K
20260426T06Z_MSC_RDPS_Snow-Accum3h_Sfc_RLatLon0.09_PT015H.grib2 2026-04-26 08:44 543K
20260426T06Z_MSC_RDPS_Snow-Accum_Sfc_RLatLon0.09_PT015H.grib2 2026-04-26 08:44 735K
20260426T06Z_MSC_RDPS_SnowDensity_Sfc_RLatLon0.09_PT015H.grib2 2026-04-26 08:44 182K
20260426T06Z_MSC_RDPS_SnowDepth_Sfc_RLatLon0.09_PT015H.grib2 2026-04-26 08:44 730K
20260426T06Z_MSC_RDPS_SoilTemp_DBS-0to10cm_RLatLon0.09_PT015H.grib2 2026-04-26 08:44 216K
20260426T06Z_MSC_RDPS_SoilTemp_Sfc_RLatLon0.09_PT015H.grib2 2026-04-26 08:44 287K
20260426T06Z_MSC_RDPS_SoilVolumetricIceContent_Sfc_RLatLon0.09_PT015H.grib2 2026-04-26 08:44 168K
20260426T06Z_MSC_RDPS_SoilVolumetricWaterContent_DBS-0to10cm_RLatLon0.09_PT015H.grib2 2026-04-26 08:44 257K
20260426T06Z_MSC_RDPS_SoilVolumetricWaterContent_DBS-0to1cm_RLatLon0.09_PT015H.grib2 2026-04-26 08:44 337K
20260426T06Z_MSC_RDPS_SpecificHumidity_AGL-120m_RLatLon0.09_PT015H.grib2 2026-04-26 08:44 495K
20260426T06Z_MSC_RDPS_SpecificHumidity_AGL-2m_RLatLon0.09_PT015H.grib2 2026-04-26 08:44 663K
20260426T06Z_MSC_RDPS_SpecificHumidity_AGL-40m_RLatLon0.09_PT015H.grib2 2026-04-26 08:44 499K
20260426T06Z_MSC_RDPS_SpecificHumidity_AGL-80m_RLatLon0.09_PT015H.grib2 2026-04-26 08:44 497K
20260426T06Z_MSC_RDPS_SpecificHumidity_IsbL-0001_RLatLon0.09_PT015H.grib2 2026-04-26 08:44 345K
20260426T06Z_MSC_RDPS_SpecificHumidity_IsbL-0005_RLatLon0.09_PT015H.grib2 2026-04-26 08:44 357K
20260426T06Z_MSC_RDPS_SpecificHumidity_IsbL-0010_RLatLon0.09_PT015H.grib2 2026-04-26 08:44 399K
20260426T06Z_MSC_RDPS_SpecificHumidity_IsbL-0020_RLatLon0.09_PT015H.grib2 2026-04-26 08:44 390K
20260426T06Z_MSC_RDPS_SpecificHumidity_IsbL-0030_RLatLon0.09_PT015H.grib2 2026-04-26 08:44 482K
20260426T06Z_MSC_RDPS_SpecificHumidity_IsbL-0050_RLatLon0.09_PT015H.grib2 2026-04-26 08:44 481K
20260426T06Z_MSC_RDPS_SpecificHumidity_IsbL-0100_RLatLon0.09_PT015H.grib2 2026-04-26 08:44 423K
20260426T06Z_MSC_RDPS_SpecificHumidity_IsbL-0150_RLatLon0.09_PT015H.grib2 2026-04-26 08:44 455K
20260426T06Z_MSC_RDPS_SpecificHumidity_IsbL-0175_RLatLon0.09_PT015H.grib2 2026-04-26 08:44 460K
20260426T06Z_MSC_RDPS_SpecificHumidity_IsbL-0200_RLatLon0.09_PT015H.grib2 2026-04-26 08:44 474K
20260426T06Z_MSC_RDPS_SpecificHumidity_IsbL-0225_RLatLon0.09_PT015H.grib2 2026-04-26 08:44 579K
20260426T06Z_MSC_RDPS_SpecificHumidity_IsbL-0250_RLatLon0.09_PT015H.grib2 2026-04-26 08:44 577K
20260426T06Z_MSC_RDPS_SpecificHumidity_IsbL-0275_RLatLon0.09_PT015H.grib2 2026-04-26 08:44 492K
20260426T06Z_MSC_RDPS_SpecificHumidity_IsbL-0300_RLatLon0.09_PT015H.grib2 2026-04-26 08:44 563K
20260426T06Z_MSC_RDPS_SpecificHumidity_IsbL-0350_RLatLon0.09_PT015H.grib2 2026-04-26 08:44 546K
20260426T06Z_MSC_RDPS_SpecificHumidity_IsbL-0400_RLatLon0.09_PT015H.grib2 2026-04-26 08:44 528K
20260426T06Z_MSC_RDPS_SpecificHumidity_IsbL-0450_RLatLon0.09_PT015H.grib2 2026-04-26 08:44 582K
20260426T06Z_MSC_RDPS_SpecificHumidity_IsbL-0500_RLatLon0.09_PT015H.grib2 2026-04-26 08:44 519K
20260426T06Z_MSC_RDPS_SpecificHumidity_IsbL-0550_RLatLon0.09_PT015H.grib2 2026-04-26 08:44 574K
20260426T06Z_MSC_RDPS_SpecificHumidity_IsbL-0600_RLatLon0.09_PT015H.grib2 2026-04-26 08:44 641K
20260426T06Z_MSC_RDPS_SpecificHumidity_IsbL-0650_RLatLon0.09_PT015H.grib2 2026-04-26 08:44 556K
20260426T06Z_MSC_RDPS_SpecificHumidity_IsbL-0700_RLatLon0.09_PT015H.grib2 2026-04-26 08:44 603K
20260426T06Z_MSC_RDPS_SpecificHumidity_IsbL-0750_RLatLon0.09_PT015H.grib2 2026-04-26 08:44 675K
20260426T06Z_MSC_RDPS_SpecificHumidity_IsbL-0800_RLatLon0.09_PT015H.grib2 2026-04-26 08:44 752K
20260426T06Z_MSC_RDPS_SpecificHumidity_IsbL-0850_RLatLon0.09_PT015H.grib2 2026-04-26 08:44 823K
20260426T06Z_MSC_RDPS_SpecificHumidity_IsbL-0875_RLatLon0.09_PT015H.grib2 2026-04-26 08:44 704K
20260426T06Z_MSC_RDPS_SpecificHumidity_IsbL-0900_RLatLon0.09_PT015H.grib2 2026-04-26 08:44 712K
20260426T06Z_MSC_RDPS_SpecificHumidity_IsbL-0925_RLatLon0.09_PT015H.grib2 2026-04-26 08:44 712K
20260426T06Z_MSC_RDPS_SpecificHumidity_IsbL-0950_RLatLon0.09_PT015H.grib2 2026-04-26 08:44 705K
20260426T06Z_MSC_RDPS_SpecificHumidity_IsbL-0970_RLatLon0.09_PT015H.grib2 2026-04-26 08:44 695K
20260426T06Z_MSC_RDPS_SpecificHumidity_IsbL-0985_RLatLon0.09_PT015H.grib2 2026-04-26 08:44 689K
20260426T06Z_MSC_RDPS_SpecificHumidity_IsbL-1000_RLatLon0.09_PT015H.grib2 2026-04-26 08:44 683K
20260426T06Z_MSC_RDPS_SpecificHumidity_IsbL-1015_RLatLon0.09_PT015H.grib2 2026-04-26 08:44 676K
20260426T06Z_MSC_RDPS_SpecificHumidity_Sfc_RLatLon0.09_PT015H.grib2 2026-04-26 08:44 346K
20260426T06Z_MSC_RDPS_StormRelativeHelicity_EtaL-10000_RLatLon0.09_PT015H.grib2 2026-04-26 08:44 1.1M
20260426T06Z_MSC_RDPS_StormSeverityIndex_EtaL-10000_RLatLon0.09_PT015H.grib2 2026-04-26 08:44 1.2M
20260426T06Z_MSC_RDPS_Thickness_IsbL-0850to0700_RLatLon0.09_PT015H.grib2 2026-04-26 08:44 180K
20260426T06Z_MSC_RDPS_Thickness_IsbL-1000to0500_RLatLon0.09_PT015H.grib2 2026-04-26 08:44 206K
20260426T06Z_MSC_RDPS_Thickness_IsbL-1000to0850_RLatLon0.09_PT015H.grib2 2026-04-26 08:44 190K
20260426T06Z_MSC_RDPS_TotalCloudCover_Sfc_RLatLon0.09_PT015H.grib2 2026-04-26 08:44 667K
20260426T06Z_MSC_RDPS_TotalTotalsIndex_Sfc_RLatLon0.09_PT015H.grib2 2026-04-26 08:44 2.4M
20260426T06Z_MSC_RDPS_UVIndex-ClearSky_Sfc_RLatLon0.09_PT015H.grib2 2026-04-26 08:44 201K
20260426T06Z_MSC_RDPS_UVIndex_Sfc_RLatLon0.09_PT015H.grib2 2026-04-26 08:44 469K
20260426T06Z_MSC_RDPS_UpwardLongwaveRadiationFlux_NTAtm_RLatLon0.09_PT015H.grib2 2026-04-26 08:44 390K
20260426T06Z_MSC_RDPS_UpwardShortwaveRadiationFlux_NTAtm_RLatLon0.09_PT015H.grib2 2026-04-26 08:44 512K
20260426T06Z_MSC_RDPS_VerticalVelocity_IsbL-0250_RLatLon0.09_PT015H.grib2 2026-04-26 08:44 552K
20260426T06Z_MSC_RDPS_VerticalVelocity_IsbL-0500_RLatLon0.09_PT015H.grib2 2026-04-26 08:44 546K
20260426T06Z_MSC_RDPS_VerticalVelocity_IsbL-0700_RLatLon0.09_PT015H.grib2 2026-04-26 08:44 605K
20260426T06Z_MSC_RDPS_VerticalVelocity_IsbL-0850_RLatLon0.09_PT015H.grib2 2026-04-26 08:44 712K
20260426T06Z_MSC_RDPS_VerticalWindShear_EtaL-6500_RLatLon0.09_PT015H.grib2 2026-04-26 08:44 1.2M
20260426T06Z_MSC_RDPS_WindChill_Sfc_RLatLon0.09_PT015H.grib2 2026-04-26 08:44 1.1M
20260426T06Z_MSC_RDPS_WindDir_AGL-10m_RLatLon0.09_PT015H.grib2 2026-04-26 08:44 1.0M
20260426T06Z_MSC_RDPS_WindDir_AGL-120m_RLatLon0.09_PT015H.grib2 2026-04-26 08:44 629K
20260426T06Z_MSC_RDPS_WindDir_AGL-40m_RLatLon0.09_PT015H.grib2 2026-04-26 08:44 651K
20260426T06Z_MSC_RDPS_WindDir_AGL-80m_RLatLon0.09_PT015H.grib2 2026-04-26 08:44 638K
20260426T06Z_MSC_RDPS_WindDir_IsbL-0001_RLatLon0.09_PT015H.grib2 2026-04-26 08:44 273K
20260426T06Z_MSC_RDPS_WindDir_IsbL-0005_RLatLon0.09_PT015H.grib2 2026-04-26 08:44 371K
20260426T06Z_MSC_RDPS_WindDir_IsbL-0010_RLatLon0.09_PT015H.grib2 2026-04-26 08:44 388K
20260426T06Z_MSC_RDPS_WindDir_IsbL-0020_RLatLon0.09_PT015H.grib2 2026-04-26 08:44 406K
20260426T06Z_MSC_RDPS_WindDir_IsbL-0030_RLatLon0.09_PT015H.grib2 2026-04-26 08:44 412K
20260426T06Z_MSC_RDPS_WindDir_IsbL-0050_RLatLon0.09_PT015H.grib2 2026-04-26 08:44 434K
20260426T06Z_MSC_RDPS_WindDir_IsbL-0100_RLatLon0.09_PT015H.grib2 2026-04-26 08:44 422K
20260426T06Z_MSC_RDPS_WindDir_IsbL-0150_RLatLon0.09_PT015H.grib2 2026-04-26 08:44 424K
20260426T06Z_MSC_RDPS_WindDir_IsbL-0175_RLatLon0.09_PT015H.grib2 2026-04-26 08:44 445K
20260426T06Z_MSC_RDPS_WindDir_IsbL-0200_RLatLon0.09_PT015H.grib2 2026-04-26 08:44 455K
20260426T06Z_MSC_RDPS_WindDir_IsbL-0225_RLatLon0.09_PT015H.grib2 2026-04-26 08:44 456K
20260426T06Z_MSC_RDPS_WindDir_IsbL-0250_RLatLon0.09_PT015H.grib2 2026-04-26 08:44 458K
20260426T06Z_MSC_RDPS_WindDir_IsbL-0275_RLatLon0.09_PT015H.grib2 2026-04-26 08:44 483K
20260426T06Z_MSC_RDPS_WindDir_IsbL-0300_RLatLon0.09_PT015H.grib2 2026-04-26 08:44 480K
20260426T06Z_MSC_RDPS_WindDir_IsbL-0350_RLatLon0.09_PT015H.grib2 2026-04-26 08:44 504K
20260426T06Z_MSC_RDPS_WindDir_IsbL-0400_RLatLon0.09_PT015H.grib2 2026-04-26 08:44 519K
20260426T06Z_MSC_RDPS_WindDir_IsbL-0450_RLatLon0.09_PT015H.grib2 2026-04-26 08:44 528K
20260426T06Z_MSC_RDPS_WindDir_IsbL-0500_RLatLon0.09_PT015H.grib2 2026-04-26 08:44 542K
20260426T06Z_MSC_RDPS_WindDir_IsbL-0550_RLatLon0.09_PT015H.grib2 2026-04-26 08:44 561K
20260426T06Z_MSC_RDPS_WindDir_IsbL-0600_RLatLon0.09_PT015H.grib2 2026-04-26 08:44 592K
20260426T06Z_MSC_RDPS_WindDir_IsbL-0650_RLatLon0.09_PT015H.grib2 2026-04-26 08:44 640K
20260426T06Z_MSC_RDPS_WindDir_IsbL-0700_RLatLon0.09_PT015H.grib2 2026-04-26 08:44 689K
20260426T06Z_MSC_RDPS_WindDir_IsbL-0750_RLatLon0.09_PT015H.grib2 2026-04-26 08:44 745K
20260426T06Z_MSC_RDPS_WindDir_IsbL-0800_RLatLon0.09_PT015H.grib2 2026-04-26 08:44 825K
20260426T06Z_MSC_RDPS_WindDir_IsbL-0850_RLatLon0.09_PT015H.grib2 2026-04-26 08:44 907K
20260426T06Z_MSC_RDPS_WindDir_IsbL-0875_RLatLon0.09_PT015H.grib2 2026-04-26 08:44 926K
20260426T06Z_MSC_RDPS_WindDir_IsbL-0900_RLatLon0.09_PT015H.grib2 2026-04-26 08:44 933K
20260426T06Z_MSC_RDPS_WindDir_IsbL-0925_RLatLon0.09_PT015H.grib2 2026-04-26 08:44 933K
20260426T06Z_MSC_RDPS_WindDir_IsbL-0950_RLatLon0.09_PT015H.grib2 2026-04-26 08:44 929K
20260426T06Z_MSC_RDPS_WindDir_IsbL-0970_RLatLon0.09_PT015H.grib2 2026-04-26 08:44 932K
20260426T06Z_MSC_RDPS_WindDir_IsbL-0985_RLatLon0.09_PT015H.grib2 2026-04-26 08:44 945K
20260426T06Z_MSC_RDPS_WindDir_IsbL-1000_RLatLon0.09_PT015H.grib2 2026-04-26 08:44 961K
20260426T06Z_MSC_RDPS_WindDir_IsbL-1015_RLatLon0.09_PT015H.grib2 2026-04-26 08:44 1.0M
20260426T06Z_MSC_RDPS_WindGust-Max_AGL-10m_RLatLon0.09_PT015H.grib2 2026-04-26 08:44 948K
20260426T06Z_MSC_RDPS_WindGust-Min_AGL-10m_RLatLon0.09_PT015H.grib2 2026-04-26 08:44 930K
20260426T06Z_MSC_RDPS_WindGust_AGL-10m_RLatLon0.09_PT015H.grib2 2026-04-26 08:44 936K
20260426T06Z_MSC_RDPS_WindSpeed_AGL-10m_RLatLon0.09_PT015H.grib2 2026-04-26 08:44 857K
20260426T06Z_MSC_RDPS_WindSpeed_AGL-120m_RLatLon0.09_PT015H.grib2 2026-04-26 08:44 553K
20260426T06Z_MSC_RDPS_WindSpeed_AGL-40m_RLatLon0.09_PT015H.grib2 2026-04-26 08:44 559K
20260426T06Z_MSC_RDPS_WindSpeed_AGL-80m_RLatLon0.09_PT015H.grib2 2026-04-26 08:44 555K
20260426T06Z_MSC_RDPS_WindSpeed_IsbL-0001_RLatLon0.09_PT015H.grib2 2026-04-26 08:44 250K
20260426T06Z_MSC_RDPS_WindSpeed_IsbL-0005_RLatLon0.09_PT015H.grib2 2026-04-26 08:44 298K
20260426T06Z_MSC_RDPS_WindSpeed_IsbL-0010_RLatLon0.09_PT015H.grib2 2026-04-26 08:44 312K
20260426T06Z_MSC_RDPS_WindSpeed_IsbL-0020_RLatLon0.09_PT015H.grib2 2026-04-26 08:44 331K
20260426T06Z_MSC_RDPS_WindSpeed_IsbL-0030_RLatLon0.09_PT015H.grib2 2026-04-26 08:44 330K
20260426T06Z_MSC_RDPS_WindSpeed_IsbL-0050_RLatLon0.09_PT015H.grib2 2026-04-26 08:44 363K
20260426T06Z_MSC_RDPS_WindSpeed_IsbL-0100_RLatLon0.09_PT015H.grib2 2026-04-26 08:44 440K
20260426T06Z_MSC_RDPS_WindSpeed_IsbL-0150_RLatLon0.09_PT015H.grib2 2026-04-26 08:44 404K
20260426T06Z_MSC_RDPS_WindSpeed_IsbL-0175_RLatLon0.09_PT015H.grib2 2026-04-26 08:44 431K
20260426T06Z_MSC_RDPS_WindSpeed_IsbL-0200_RLatLon0.09_PT015H.grib2 2026-04-26 08:44 448K
20260426T06Z_MSC_RDPS_WindSpeed_IsbL-0225_RLatLon0.09_PT015H.grib2 2026-04-26 08:44 456K
20260426T06Z_MSC_RDPS_WindSpeed_IsbL-0250_RLatLon0.09_PT015H.grib2 2026-04-26 08:44 460K
20260426T06Z_MSC_RDPS_WindSpeed_IsbL-0275_RLatLon0.09_PT015H.grib2 2026-04-26 08:44 479K
20260426T06Z_MSC_RDPS_WindSpeed_IsbL-0300_RLatLon0.09_PT015H.grib2 2026-04-26 08:44 474K
20260426T06Z_MSC_RDPS_WindSpeed_IsbL-0350_RLatLon0.09_PT015H.grib2 2026-04-26 08:44 483K
20260426T06Z_MSC_RDPS_WindSpeed_IsbL-0400_RLatLon0.09_PT015H.grib2 2026-04-26 08:44 467K
20260426T06Z_MSC_RDPS_WindSpeed_IsbL-0450_RLatLon0.09_PT015H.grib2 2026-04-26 08:44 464K
20260426T06Z_MSC_RDPS_WindSpeed_IsbL-0500_RLatLon0.09_PT015H.grib2 2026-04-26 08:44 464K
20260426T06Z_MSC_RDPS_WindSpeed_IsbL-0550_RLatLon0.09_PT015H.grib2 2026-04-26 08:44 586K
20260426T06Z_MSC_RDPS_WindSpeed_IsbL-0600_RLatLon0.09_PT015H.grib2 2026-04-26 08:44 598K
20260426T06Z_MSC_RDPS_WindSpeed_IsbL-0650_RLatLon0.09_PT015H.grib2 2026-04-26 08:44 664K
20260426T06Z_MSC_RDPS_WindSpeed_IsbL-0700_RLatLon0.09_PT015H.grib2 2026-04-26 08:44 688K
20260426T06Z_MSC_RDPS_WindSpeed_IsbL-0750_RLatLon0.09_PT015H.grib2 2026-04-26 08:44 718K
20260426T06Z_MSC_RDPS_WindSpeed_IsbL-0800_RLatLon0.09_PT015H.grib2 2026-04-26 08:44 770K
20260426T06Z_MSC_RDPS_WindSpeed_IsbL-0850_RLatLon0.09_PT015H.grib2 2026-04-26 08:44 827K
20260426T06Z_MSC_RDPS_WindSpeed_IsbL-0875_RLatLon0.09_PT015H.grib2 2026-04-26 08:44 845K
20260426T06Z_MSC_RDPS_WindSpeed_IsbL-0900_RLatLon0.09_PT015H.grib2 2026-04-26 08:44 810K
20260426T06Z_MSC_RDPS_WindSpeed_IsbL-0925_RLatLon0.09_PT015H.grib2 2026-04-26 08:44 817K
20260426T06Z_MSC_RDPS_WindSpeed_IsbL-0950_RLatLon0.09_PT015H.grib2 2026-04-26 08:44 815K
20260426T06Z_MSC_RDPS_WindSpeed_IsbL-0970_RLatLon0.09_PT015H.grib2 2026-04-26 08:44 816K
20260426T06Z_MSC_RDPS_WindSpeed_IsbL-0985_RLatLon0.09_PT015H.grib2 2026-04-26 08:44 864K
20260426T06Z_MSC_RDPS_WindSpeed_IsbL-1000_RLatLon0.09_PT015H.grib2 2026-04-26 08:44 862K
20260426T06Z_MSC_RDPS_WindSpeed_IsbL-1015_RLatLon0.09_PT015H.grib2 2026-04-26 08:44 857K
20260426T06Z_MSC_RDPS_WindU_AGL-10m_RLatLon0.09_PT015H.grib2 2026-04-26 08:44 441K
20260426T06Z_MSC_RDPS_WindU_AGL-120m_RLatLon0.09_PT015H.grib2 2026-04-26 08:44 540K
20260426T06Z_MSC_RDPS_WindU_AGL-40m_RLatLon0.09_PT015H.grib2 2026-04-26 08:44 545K
20260426T06Z_MSC_RDPS_WindU_AGL-80m_RLatLon0.09_PT015H.grib2 2026-04-26 08:44 542K
20260426T06Z_MSC_RDPS_WindU_IsbL-0001_RLatLon0.09_PT015H.grib2 2026-04-26 08:44 292K
20260426T06Z_MSC_RDPS_WindU_IsbL-0005_RLatLon0.09_PT015H.grib2 2026-04-26 08:44 291K
20260426T06Z_MSC_RDPS_WindU_IsbL-0010_RLatLon0.09_PT015H.grib2 2026-04-26 08:44 303K
20260426T06Z_MSC_RDPS_WindU_IsbL-0020_RLatLon0.09_PT015H.grib2 2026-04-26 08:44 361K
20260426T06Z_MSC_RDPS_WindU_IsbL-0030_RLatLon0.09_PT015H.grib2 2026-04-26 08:44 360K
20260426T06Z_MSC_RDPS_WindU_IsbL-0050_RLatLon0.09_PT015H.grib2 2026-04-26 08:44 358K
20260426T06Z_MSC_RDPS_WindU_IsbL-0100_RLatLon0.09_PT015H.grib2 2026-04-26 08:44 338K
20260426T06Z_MSC_RDPS_WindU_IsbL-0150_RLatLon0.09_PT015H.grib2 2026-04-26 08:44 397K
20260426T06Z_MSC_RDPS_WindU_IsbL-0175_RLatLon0.09_PT015H.grib2 2026-04-26 08:44 425K
20260426T06Z_MSC_RDPS_WindU_IsbL-0200_RLatLon0.09_PT015H.grib2 2026-04-26 08:44 441K
20260426T06Z_MSC_RDPS_WindU_IsbL-0225_RLatLon0.09_PT015H.grib2 2026-04-26 08:44 347K
20260426T06Z_MSC_RDPS_WindU_IsbL-0250_RLatLon0.09_PT015H.grib2 2026-04-26 08:44 349K
20260426T06Z_MSC_RDPS_WindU_IsbL-0275_RLatLon0.09_PT015H.grib2 2026-04-26 08:44 364K
20260426T06Z_MSC_RDPS_WindU_IsbL-0300_RLatLon0.09_PT015H.grib2 2026-04-26 08:44 359K
20260426T06Z_MSC_RDPS_WindU_IsbL-0350_RLatLon0.09_PT015H.grib2 2026-04-26 08:44 366K
20260426T06Z_MSC_RDPS_WindU_IsbL-0400_RLatLon0.09_PT015H.grib2 2026-04-26 08:44 470K
20260426T06Z_MSC_RDPS_WindU_IsbL-0450_RLatLon0.09_PT015H.grib2 2026-04-26 08:44 469K
20260426T06Z_MSC_RDPS_WindU_IsbL-0500_RLatLon0.09_PT015H.grib2 2026-04-26 08:44 470K
20260426T06Z_MSC_RDPS_WindU_IsbL-0550_RLatLon0.09_PT015H.grib2 2026-04-26 08:44 474K
20260426T06Z_MSC_RDPS_WindU_IsbL-0600_RLatLon0.09_PT015H.grib2 2026-04-26 08:44 485K
20260426T06Z_MSC_RDPS_WindU_IsbL-0650_RLatLon0.09_PT015H.grib2 2026-04-26 08:44 490K
20260426T06Z_MSC_RDPS_WindU_IsbL-0700_RLatLon0.09_PT015H.grib2 2026-04-26 08:44 511K
20260426T06Z_MSC_RDPS_WindU_IsbL-0750_RLatLon0.09_PT015H.grib2 2026-04-26 08:44 539K
20260426T06Z_MSC_RDPS_WindU_IsbL-0800_RLatLon0.09_PT015H.grib2 2026-04-26 08:44 584K
20260426T06Z_MSC_RDPS_WindU_IsbL-0850_RLatLon0.09_PT015H.grib2 2026-04-26 08:44 634K
20260426T06Z_MSC_RDPS_WindU_IsbL-0875_RLatLon0.09_PT015H.grib2 2026-04-26 08:44 649K
20260426T06Z_MSC_RDPS_WindU_IsbL-0900_RLatLon0.09_PT015H.grib2 2026-04-26 08:44 657K
20260426T06Z_MSC_RDPS_WindU_IsbL-0925_RLatLon0.09_PT015H.grib2 2026-04-26 08:44 662K
20260426T06Z_MSC_RDPS_WindU_IsbL-0950_RLatLon0.09_PT015H.grib2 2026-04-26 08:44 658K
20260426T06Z_MSC_RDPS_WindU_IsbL-0970_RLatLon0.09_PT015H.grib2 2026-04-26 08:44 797K
20260426T06Z_MSC_RDPS_WindU_IsbL-0985_RLatLon0.09_PT015H.grib2 2026-04-26 08:44 797K
20260426T06Z_MSC_RDPS_WindU_IsbL-1000_RLatLon0.09_PT015H.grib2 2026-04-26 08:44 797K
20260426T06Z_MSC_RDPS_WindU_IsbL-1015_RLatLon0.09_PT015H.grib2 2026-04-26 08:44 793K
20260426T06Z_MSC_RDPS_WindV_AGL-10m_RLatLon0.09_PT015H.grib2 2026-04-26 08:44 438K
20260426T06Z_MSC_RDPS_WindV_AGL-120m_RLatLon0.09_PT015H.grib2 2026-04-26 08:44 421K
20260426T06Z_MSC_RDPS_WindV_AGL-40m_RLatLon0.09_PT015H.grib2 2026-04-26 08:44 423K
20260426T06Z_MSC_RDPS_WindV_AGL-80m_RLatLon0.09_PT015H.grib2 2026-04-26 08:44 422K
20260426T06Z_MSC_RDPS_WindV_IsbL-0001_RLatLon0.09_PT015H.grib2 2026-04-26 08:44 208K
20260426T06Z_MSC_RDPS_WindV_IsbL-0005_RLatLon0.09_PT015H.grib2 2026-04-26 08:44 332K
20260426T06Z_MSC_RDPS_WindV_IsbL-0010_RLatLon0.09_PT015H.grib2 2026-04-26 08:44 304K
20260426T06Z_MSC_RDPS_WindV_IsbL-0020_RLatLon0.09_PT015H.grib2 2026-04-26 08:44 361K
20260426T06Z_MSC_RDPS_WindV_IsbL-0030_RLatLon0.09_PT015H.grib2 2026-04-26 08:44 361K
20260426T06Z_MSC_RDPS_WindV_IsbL-0050_RLatLon0.09_PT015H.grib2 2026-04-26 08:44 355K
20260426T06Z_MSC_RDPS_WindV_IsbL-0100_RLatLon0.09_PT015H.grib2 2026-04-26 08:44 333K
20260426T06Z_MSC_RDPS_WindV_IsbL-0150_RLatLon0.09_PT015H.grib2 2026-04-26 08:44 394K
20260426T06Z_MSC_RDPS_WindV_IsbL-0175_RLatLon0.09_PT015H.grib2 2026-04-26 08:44 422K
20260426T06Z_MSC_RDPS_WindV_IsbL-0200_RLatLon0.09_PT015H.grib2 2026-04-26 08:44 439K
20260426T06Z_MSC_RDPS_WindV_IsbL-0225_RLatLon0.09_PT015H.grib2 2026-04-26 08:44 444K
20260426T06Z_MSC_RDPS_WindV_IsbL-0250_RLatLon0.09_PT015H.grib2 2026-04-26 08:44 346K
20260426T06Z_MSC_RDPS_WindV_IsbL-0275_RLatLon0.09_PT015H.grib2 2026-04-26 08:44 361K
20260426T06Z_MSC_RDPS_WindV_IsbL-0300_RLatLon0.09_PT015H.grib2 2026-04-26 08:44 380K
20260426T06Z_MSC_RDPS_WindV_IsbL-0350_RLatLon0.09_PT015H.grib2 2026-04-26 08:44 361K
20260426T06Z_MSC_RDPS_WindV_IsbL-0400_RLatLon0.09_PT015H.grib2 2026-04-26 08:44 362K
20260426T06Z_MSC_RDPS_WindV_IsbL-0450_RLatLon0.09_PT015H.grib2 2026-04-26 08:44 360K
20260426T06Z_MSC_RDPS_WindV_IsbL-0500_RLatLon0.09_PT015H.grib2 2026-04-26 08:44 464K
20260426T06Z_MSC_RDPS_WindV_IsbL-0550_RLatLon0.09_PT015H.grib2 2026-04-26 08:44 468K
20260426T06Z_MSC_RDPS_WindV_IsbL-0600_RLatLon0.09_PT015H.grib2 2026-04-26 08:44 479K
20260426T06Z_MSC_RDPS_WindV_IsbL-0650_RLatLon0.09_PT015H.grib2 2026-04-26 08:44 499K
20260426T06Z_MSC_RDPS_WindV_IsbL-0700_RLatLon0.09_PT015H.grib2 2026-04-26 08:44 505K
20260426T06Z_MSC_RDPS_WindV_IsbL-0750_RLatLon0.09_PT015H.grib2 2026-04-26 08:44 533K
20260426T06Z_MSC_RDPS_WindV_IsbL-0800_RLatLon0.09_PT015H.grib2 2026-04-26 08:44 577K
20260426T06Z_MSC_RDPS_WindV_IsbL-0850_RLatLon0.09_PT015H.grib2 2026-04-26 08:44 636K
20260426T06Z_MSC_RDPS_WindV_IsbL-0875_RLatLon0.09_PT015H.grib2 2026-04-26 08:44 651K
20260426T06Z_MSC_RDPS_WindV_IsbL-0900_RLatLon0.09_PT015H.grib2 2026-04-26 08:44 660K
20260426T06Z_MSC_RDPS_WindV_IsbL-0925_RLatLon0.09_PT015H.grib2 2026-04-26 08:44 664K
20260426T06Z_MSC_RDPS_WindV_IsbL-0950_RLatLon0.09_PT015H.grib2 2026-04-26 08:44 660K
20260426T06Z_MSC_RDPS_WindV_IsbL-0970_RLatLon0.09_PT015H.grib2 2026-04-26 08:44 654K
20260426T06Z_MSC_RDPS_WindV_IsbL-0985_RLatLon0.09_PT015H.grib2 2026-04-26 08:44 655K
20260426T06Z_MSC_RDPS_WindV_IsbL-1000_RLatLon0.09_PT015H.grib2 2026-04-26 08:44 655K
20260426T06Z_MSC_RDPS_WindV_IsbL-1015_RLatLon0.09_PT015H.grib2 2026-04-26 08:44 789K